EW2295 Weather Reports


time (UTC)temp
C
wind
direction
speed
KPH
gust
KPH
rain 1hr
cm
rain 24hr
cm
rain mn
cm
humidity
%
barometer
mb
20260509205543 11 0 0.0 0.0 0.00 0.00 0.00 88 1016.8
20260509205042 11 0 0.0 0.0 0.00 0.00 0.00 87 1016.8
20260509204555 11 0 0.0 0.0 0.00 0.00 0.00 87 1016.7
20260509204043 11 0 0.0 0.0 0.00 0.00 0.00 86 1016.7
20260509203545 11 0 0.0 0.0 0.00 0.00 0.00 86 1016.9
20260509203056 11 0 0.0 0.0 0.00 0.00 0.00 86 1016.9
20260509202542 12 0 0.0 0.0 0.00 0.00 0.00 85 1016.8
20260509202045 12 0 0.0 0.0 0.00 0.00 0.00 86 1017.0
20260509201559 12 0 0.0 0.0 0.00 0.00 0.00 86 1017.0
20260509201042 12 0 0.0 0.0 0.00 0.00 0.00 85 1017.1
20260509200544 12 0 0.0 0.0 0.00 0.00 0.00 84 1016.9
20260509200104 12 0 0.0 0.0 0.00 0.00 0.00 84 1017.0
20260509195543 12 0 0.0 0.0 0.00 0.00 0.00 83 1016.9
20260509195042 12 0 0.0 0.0 0.00 0.00 0.00 83 1016.8
20260509194549 12 0 0.0 0.0 0.00 0.00 0.00 81 1016.8
20260509194042 12 0 0.0 0.0 0.00 0.00 0.00 81 1016.7
20260509193545 12 0 0.0 0.0 0.00 0.00 0.00 80 1016.8
20260509193110 13 0 0.0 0.0 0.00 0.00 0.00 80 1016.6
20260509192548 13 0 0.0 0.0 0.00 0.00 0.00 79 1016.7
20260509192041 13 0 0.0 0.0 0.00 0.00 0.00 78 1016.7
20260509191551 13 0 0.0 0.0 0.00 0.00 0.00 77 1016.7
20260509191043 13 0 0.0 0.0 0.00 0.00 0.00 76 1016.7
20260509190544 14 0 0.0 0.0 0.00 0.00 0.00 75 1016.5
20260509190053 14 0 0.0 0.0 0.00 0.00 0.00 74 1016.5
20260509185542 15 0 0.0 0.0 0.00 0.00 0.00 72 1016.5
20260509185043 15 0 0.0 0.0 0.00 0.00 0.00 72 1016.5
20260509184601 15 0 0.0 0.0 0.00 0.00 0.00 71 1016.5
20260509184044 15 0 0.0 0.0 0.00 0.00 0.00 70 1016.4
20260509183542 15 0 0.0 0.0 0.00 0.00 0.00 69 1016.3
20260509183056 16 0 0.0 0.0 0.00 0.00 0.00 68 1016.2
20260509182547 16 0 0.0 0.0 0.00 0.00 0.00 67 1016.3
20260509182043 16 0 0.0 0.0 0.00 0.00 0.00 66 1016.3
20260509181549 16 0 0.0 3.2 0.00 0.00 0.00 65 1016.2
20260509181042 16 0 0.0 3.2 0.00 0.00 0.00 64 1016.3
20260509180543 16 32 0.0 4.8 0.00 0.00 0.00 63 1016.3
20260509180051 17 32 0.0 4.8 0.00 0.00 0.00 63 1016.2
20260509175542 17 0 0.0 1.6 0.00 0.00 0.00 63 1016.2
20260509175042 17 0 0.0 6.4 0.00 0.00 0.00 62 1016.1
20260509174549 17 0 0.0 6.4 0.00 0.00 0.00 61 1016.2
20260509174041 17 0 1.6 8.0 0.00 0.00 0.00 61 1016.2
20260509173544 17 0 0.0 8.0 0.00 0.00 0.00 61 1016.2
20260509173105 17 0 0.0 8.0 0.00 0.00 0.00 61 1016.3
20260509172542 17 0 0.0 8.0 0.00 0.00 0.00 60 1016.3
20260509172042 17 0 0.0 8.0 0.00 0.00 0.00 60 1016.3
20260509171608 17 32 0.0 8.0 0.00 0.00 0.00 59 1016.4
20260509171044 17 0 0.0 8.0 0.00 0.00 0.00 58 1016.3
20260509170544 18 0 0.0 9.7 0.00 0.00 0.00 58 1016.3
20260509170051 18 34 1.6 11.3 0.00 0.00 0.00 58 1016.3
20260509165542 18 0 1.6 11.3 0.00 0.00 0.00 58 1016.3
20260509165041 18 51 0.0 8.0 0.00 0.00 0.00 58 1016.3
20260509164553 18 23 0.0 6.4 0.00 0.00 0.00 58 1016.3
20260509164042 18 0 0.0 6.4 0.00 0.00 0.00 58 1016.3
20260509163542 17 22 0.0 4.8 0.00 0.00 0.00 58 1016.4
20260509163058 17 0 0.0 0.0 0.00 0.00 0.00 58 1016.6
20260509162542 17 0 0.0 6.4 0.00 0.00 0.00 57 1016.5
20260509162045 17 0 0.0 6.4 0.00 0.00 0.00 58 1016.5
20260509161554 17 0 0.0 0.0 0.00 0.00 0.00 58 1016.5
20260509161041 17 0 0.0 0.0 0.00 0.00 0.00 56 1016.5
20260509160541 17 0 0.0 0.0 0.00 0.00 0.00 56 1016.5
20260509160051 17 0 0.0 0.0 0.00 0.00 0.00 57 1016.5
20260509155541 17 0 0.0 0.0 0.00 0.00 0.00 57 1016.6
20260509155044 17 0 0.0 0.0 0.00 0.00 0.00 56 1016.7
20260509154556 17 0 0.0 6.4 0.00 0.00 0.00 56 1016.7
20260509154042 17 0 0.0 9.7 0.00 0.00 0.00 57 1016.7
20260509153542 18 0 0.0 9.7 0.00 0.00 0.00 56 1016.7
20260509153052 18 53 0.0 12.9 0.00 0.00 0.00 55 1016.8
20260509152548 18 0 3.2 12.9 0.00 0.00 0.00 56 1016.8
20260509152042 18 0 0.0 9.7 0.00 0.00 0.00 57 1016.8
20260509151553 18 0 1.6 9.7 0.00 0.00 0.00 55 1016.8
20260509151041 18 0 0.0 0.0 0.00 0.00 0.00 54 1017.0
20260509150541 18 0 0.0 0.0 0.00 0.00 0.00 53 1017.0
20260509150105 18 0 0.0 0.0 0.00 0.00 0.00 53 1017.0
20260509145542 18 0 0.0 4.8 0.00 0.00 0.00 54 1017.1
20260509145044 18 0 0.0 14.5 0.00 0.00 0.00 55 1017.1
20260509144658 18 0 0.0 14.5 0.00 0.00 0.00 54 1017.1
20260509144047 18 0 1.6 11.3 0.00 0.00 0.00 54 1017.0
20260509143541 18 0 1.6 11.3 0.00 0.00 0.00 54 1017.1
20260509143052 18 0 0.0 4.8 0.00 0.00 0.00 54 1017.2
20260509142545 18 13 0.0 3.2 0.00 0.00 0.00 52 1017.3
20260509142041 18 0 0.0 8.0 0.00 0.00 0.00 51 1017.3
20260509141551 18 0 0.0 12.9 0.00 0.00 0.00 52 1017.3
20260509141041 18 0 0.0 12.9 0.00 0.00 0.00 55 1017.5
20260509140542 18 324 0.0 8.0 0.00 0.00 0.00 53 1017.5
20260509140057 18 0 0.0 8.0 0.00 0.00 0.00 53 1017.6
20260509135546 18 0 1.6 8.0 0.00 0.00 0.00 52 1017.6
20260509135046 18 0 0.0 12.9 0.00 0.00 0.00 53 1017.7
20260509134552 18 0 0.0 12.9 0.00 0.00 0.00 53 1017.7
20260509134046 18 352 0.0 8.0 0.00 0.00 0.00 55 1017.7
20260509133545 18 0 0.0 8.0 0.00 0.00 0.00 56 1017.8
20260509133053 18 0 0.0 8.0 0.00 0.00 0.00 54 1017.9
20260509132548 18 29 0.0 8.0 0.00 0.00 0.00 55 1018.0
20260509132047 18 0 0.0 9.7 0.00 0.00 0.00 54 1017.9
20260509131550 18 0 0.0 9.7 0.00 0.00 0.00 53 1018.1
20260509131045 18 13 0.0 9.7 0.00 0.00 0.00 55 1018.1
20260509130546 18 0 0.0 9.7 0.00 0.00 0.00 55 1018.1
20260509125546 18 0 0.0 8.0 0.00 0.00 0.00 59 1018.3
20260509125045 17 0 0.0 6.4 0.00 0.00 0.00 57 1018.2
20260509124604 17 317 0.0 3.2 0.00 0.00 0.00 57 1018.3
20260509124047 17 0 0.0 12.9 0.00 0.00 0.00 56 1018.2
20260509123547 17 0 0.0 12.9 0.00 0.00 0.00 54 1018.3
20260509123051 17 321 0.0 8.0 0.00 0.00 0.00 56 1018.4
20260509122550 17 0 0.0 8.0 0.00 0.00 0.00 56 1018.4
20260509122049 18 349 0.0 0.0 0.00 0.00 0.00 53 1018.4
20260509121552 18 0 0.0 1.6 0.00 0.00 0.00 53 1018.5
20260509121048 18 0 0.0 1.6 0.00 0.00 0.00 53 1018.6
20260509120547 18 0 0.0 1.6 0.00 0.00 0.00 53 1018.7
20260509120100 17 0 0.0 0.0 0.00 0.00 0.00 57 1018.7
20260509115546 17 0 0.0 0.0 0.00 0.00 0.00 56 1018.7
20260509115045 18 0 0.0 0.0 0.00 0.00 0.00 58 1018.7
20260509114554 18 0 0.0 0.0 0.00 0.00 0.00 58 1018.8
20260509114047 17 0 0.0 0.0 0.00 0.00 0.00 57 1018.7
20260509113550 17 0 0.0 1.6 0.00 0.00 0.00 56 1018.8
20260509113052 18 0 0.0 1.6 0.00 0.00 0.00 56 1018.7
20260509112546 18 0 0.0 4.8 0.00 0.00 0.00 58 1018.7
20260509112047 18 0 0.0 8.0 0.00 0.00 0.00 55 1018.9
20260509111552 18 360 0.0 8.0 0.00 0.00 0.00 57 1018.9
20260509111046 17 355 0.0 8.0 0.00 0.00 0.00 58 1018.9
20260509110546 17 0 0.0 1.6 0.00 0.00 0.00 59 1019.1
20260509110053 17 0 0.0 0.0 0.00 0.00 0.00 60 1019.2
20260509105545 16 0 0.0 0.0 0.00 0.00 0.00 62 1019.2
20260509105045 16 0 0.0 0.0 0.00 0.00 0.00 60 1019.3
20260509104552 16 0 0.0 1.6 0.00 0.00 0.00 60 1019.3
20260509104045 16 0 0.0 6.4 0.00 0.00 0.00 57 1019.4
20260509103549 17 0 0.0 6.4 0.00 0.00 0.00 57 1019.4
20260509103057 18 0 0.0 6.4 0.00 0.00 0.00 57 1019.3
20260509102545 18 0 0.0 6.4 0.00 0.00 0.00 59 1019.3
20260509102046 18 0 0.0 4.8 0.00 0.00 0.00 57 1019.3
20260509101555 18 0 0.0 6.4 0.00 0.00 0.00 58 1019.3
20260509101045 17 0 0.0 6.4 0.00 0.00 0.00 63 1019.4
20260509100548 17 0 0.0 0.0 0.00 0.00 0.00 61 1019.4
20260509100058 17 0 0.0 0.0 0.00 0.00 0.00 63 1019.4
20260509095548 16 0 0.0 0.0 0.00 0.00 0.00 63 1019.5
20260509095045 16 0 0.0 0.0 0.00 0.00 0.00 61 1019.5
20260509094555 16 0 0.0 0.0 0.00 0.00 0.00 61 1019.5
20260509094044 16 0 0.0 0.0 0.00 0.00 0.00 65 1019.5
20260509093547 16 0 0.0 0.0 0.00 0.00 0.00 62 1019.5
20260509093053 16 0 0.0 1.6 0.00 0.00 0.00 66 1019.6
20260509092545 16 0 0.0 1.6 0.00 0.00 0.00 64 1019.5
20260509092049 16 0 0.0 1.6 0.00 0.00 0.00 66 1019.5
20260509091553 16 0 0.0 3.2 0.00 0.00 0.00 65 1019.5
20260509091047 16 0 0.0 3.2 0.00 0.00 0.00 65 1019.5
20260509090545 16 0 0.0 9.7 0.00 0.00 0.00 64 1019.6
20260509090104 16 0 0.0 9.7 0.00 0.00 0.00 68 1019.6
20260509085544 16 0 0.0 1.6 0.00 0.00 0.00 66 1019.6
20260509085045 16 0 0.0 3.2 0.00 0.00 0.00 66 1019.7
20260509084554 16 0 0.0 3.2 0.00 0.00 0.00 70 1019.6
20260509084047 16 0 0.0 3.2 0.00 0.00 0.00 69 1019.6
20260509083546 15 0 0.0 4.8 0.00 0.00 0.00 70 1019.6
20260509083054 15 0 0.0 4.8 0.00 0.00 0.00 71 1019.5
20260509082546 15 37 0.0 4.8 0.00 0.00 0.00 70 1019.5
20260509082049 15 0 0.0 0.0 0.00 0.00 0.00 69 1019.6
20260509081551 15 0 0.0 0.0 0.00 0.00 0.00 68 1019.5
20260509081050 15 0 0.0 0.0 0.00 0.00 0.00 71 1019.5
20260509080546 15 0 0.0 0.0 0.00 0.00 0.00 72 1019.5
20260509080059 14 0 0.0 0.0 0.00 0.00 0.00 73 1019.5
20260509075545 14 0 0.0 0.0 0.00 0.00 0.00 73 1019.6
20260509075045 14 0 0.0 0.0 0.00 0.00 0.00 72 1019.7
20260509074549 14 0 0.0 0.0 0.00 0.00 0.00 73 1019.7
20260509074045 13 0 0.0 0.0 0.00 0.00 0.00 74 1019.6
20260509073546 13 0 0.0 0.0 0.00 0.00 0.00 75 1019.7
20260509073056 13 0 0.0 0.0 0.00 0.00 0.00 77 1019.7
20260509072546 13 0 0.0 0.0 0.00 0.00 0.00 77 1019.5
20260509072047 12 0 0.0 0.0 0.00 0.00 0.00 80 1019.6
20260509071600 12 0 0.0 0.0 0.00 0.00 0.00 81 1019.6
20260509071049 12 0 0.0 0.0 0.00 0.00 0.00 81 1019.8
20260509070546 12 0 0.0 0.0 0.00 0.00 0.00 82 1019.8
20260509070057 11 0 0.0 0.0 0.00 0.00 0.00 84 1019.8
20260509065545 11 0 0.0 0.0 0.00 0.00 0.00 87 1019.8
20260509065045 11 0 0.0 0.0 0.00 0.00 0.00 89 1019.8
20260509064604 11 0 0.0 0.0 0.00 0.00 0.00 91 1019.8
20260509064046 10 0 0.0 0.0 0.00 0.00 0.00 94 1019.8
20260509063545 10 0 0.0 0.0 0.00 0.00 0.00 95 1019.8
20260509063054 9 0 0.0 0.0 0.00 0.00 0.00 96 1019.7
20260509062547 8 0 0.0 0.0 0.00 0.00 0.00 96 1019.7
20260509062045 8 0 0.0 0.0 0.00 0.00 0.00 96 1019.7
20260509061553 8 0 0.0 0.0 0.00 0.00 0.00 96 1019.6
20260509061046 7 0 0.0 0.0 0.00 0.00 0.00 96 1019.6
20260509060547 7 0 0.0 0.0 0.00 0.00 0.00 96 1019.7
20260509060104 7 0 0.0 0.0 0.00 0.00 0.00 96 1019.8
20260509055547 7 0 0.0 0.0 0.00 0.00 0.00 96 1019.7
20260509055045 7 0 0.0 0.0 0.00 0.00 0.00 96 1019.6
20260509054604 6 0 0.0 0.0 0.00 0.00 0.00 96 1019.5
20260509054049 6 0 0.0 0.0 0.00 0.00 0.00 96 1019.4
20260509053546 6 0 0.0 0.0 0.00 0.00 0.00 96 1019.5
20260509053059 6 0 0.0 0.0 0.00 0.00 0.00 96 1019.4
20260509052545 6 0 0.0 0.0 0.00 0.00 0.00 96 1019.5
20260509052045 5 0 0.0 0.0 0.00 0.00 0.00 96 1019.5
20260509051553 5 0 0.0 0.0 0.00 0.00 0.00 96 1019.3
20260509051045 5 0 0.0 0.0 0.00 0.00 0.00 96 1019.4
20260509050548 5 0 0.0 0.0 0.00 0.00 0.00 96 1019.3
20260509050057 5 0 0.0 0.0 0.00 0.00 0.00 96 1019.5
20260509045545 5 0 0.0 0.0 0.00 0.00 0.00 96 1019.4
20260509045045 4 0 0.0 0.0 0.00 0.00 0.00 96 1019.4
20260509044552 4 0 0.0 0.0 0.00 0.00 0.00 95 1019.4
20260509044045 4 0 0.0 0.0 0.00 0.00 0.00 95 1019.3
20260509043545 4 0 0.0 0.0 0.00 0.00 0.00 95 1019.4
20260509043059 4 0 0.0 0.0 0.00 0.00 0.00 95 1019.3
20260509042546 4 0 0.0 0.0 0.00 0.00 0.00 95 1019.4
20260509042047 4 0 0.0 0.0 0.00 0.00 0.00 95 1019.3
20260509041600 4 0 0.0 0.0 0.00 0.00 0.00 95 1019.4
20260509041046 4 0 0.0 0.0 0.00 0.00 0.00 95 1019.5
20260509040545 4 0 0.0 0.0 0.00 0.00 0.00 95 1019.4
20260509040057 4 0 0.0 0.0 0.00 0.00 0.00 95 1019.4
20260509035545 4 0 0.0 0.0 0.00 0.00 0.00 95 1019.4
20260509035046 4 0 0.0 0.0 0.00 0.00 0.00 95 1019.5
20260509034604 4 0 0.0 0.0 0.00 0.00 0.00 95 1019.5
20260509034045 4 0 0.0 0.0 0.00 0.00 0.00 95 1019.5
20260509033542 4 0 0.0 0.0 0.00 0.00 0.00 95 1019.5
20260509033054 4 0 0.0 0.0 0.00 0.00 0.00 95 1019.6
20260509032545 4 0 0.0 0.0 0.00 0.00 0.00 95 1019.6
20260509032044 4 0 0.0 0.0 0.00 0.00 0.00 95 1019.6
20260509031602 4 0 0.0 0.0 0.00 0.00 0.00 95 1019.7
20260509031042 4 0 0.0 0.0 0.00 0.00 0.00 95 1019.8
20260509030546 4 0 0.0 0.0 0.00 0.00 0.00 95 1019.7
20260509030056 4 0 0.0 0.0 0.00 0.00 0.00 95 1019.7
20260509025549 4 0 0.0 0.0 0.00 0.00 0.00 95 1019.7
20260509025046 4 0 0.0 0.0 0.00 0.00 0.00 95 1019.7
20260509024554 5 0 0.0 0.0 0.00 0.00 0.00 95 1019.7
20260509024047 5 0 0.0 0.0 0.00 0.00 0.00 95 1019.8
20260509023544 5 0 0.0 0.0 0.00 0.00 0.00 95 1019.8
20260509023104 5 0 0.0 0.0 0.00 0.00 0.00 95 1019.7
20260509022544 5 0 0.0 0.0 0.00 0.00 0.00 95 1019.6
20260509022046 5 0 0.0 0.0 0.00 0.00 0.00 95 1019.6
20260509021555 5 0 0.0 0.0 0.00 0.00 0.00 95 1019.7
20260509021047 5 0 0.0 0.0 0.00 0.00 0.00 95 1019.7
20260509020547 5 0 0.0 0.0 0.00 0.00 0.00 95 1019.6
20260509020055 5 0 0.0 0.0 0.00 0.00 0.00 95 1019.7
20260509015546 5 0 0.0 0.0 0.00 0.00 0.00 95 1019.7
20260509015044 5 0 0.0 0.0 0.00 0.00 0.00 95 1019.8
20260509014550 5 0 0.0 0.0 0.00 0.00 0.00 95 1019.8
20260509014043 5 0 0.0 0.0 0.00 0.00 0.00 94 1019.8
20260509013545 5 0 0.0 0.0 0.00 0.00 0.00 94 1019.8
20260509013108 5 0 0.0 0.0 0.00 0.00 0.00 94 1019.8
20260509012544 5 0 0.0 0.0 0.00 0.00 0.00 95 1019.8
20260509012042 5 0 0.0 0.0 0.00 0.00 0.00 94 1019.9
20260509011550 5 0 0.0 0.0 0.00 0.00 0.00 94 1019.8
20260509011046 5 0 0.0 0.0 0.00 0.00 0.00 94 1019.9
20260509010545 5 0 0.0 0.0 0.00 0.00 0.00 94 1019.9
20260509010050 5 0 0.0 0.0 0.00 0.00 0.00 94 1019.8
20260509005543 5 0 0.0 0.0 0.00 0.00 0.00 94 1019.9
20260509005043 5 0 0.0 0.0 0.00 0.00 0.00 94 1019.8
20260509004553 5 0 0.0 0.0 0.00 0.00 0.00 94 1019.7
20260509004043 6 0 0.0 0.0 0.00 0.00 0.00 94 1019.8
20260509003543 6 0 0.0 0.0 0.00 0.00 0.00 94 1019.8
20260509003058 6 0 0.0 0.0 0.00 0.00 0.00 94 1019.8
20260509002545 6 0 0.0 0.0 0.00 0.00 0.00 94 1019.9
20260509002045 6 0 0.0 0.0 0.00 0.00 0.00 94 1019.8
20260509001552 6 0 0.0 0.0 0.00 0.00 0.00 94 1019.8
20260509001046 6 0 0.0 0.0 0.00 0.00 0.00 94 1019.9
20260509000542 6 0 0.0 0.0 0.00 0.00 0.00 94 1019.8
20260509000056 6 0 0.0 0.0 0.00 0.00 0.00 94 1019.8
20260508235543 6 0 0.0 0.0 0.00 0.00 0.00 94 1019.9
20260508235042 6 0 0.0 0.0 0.00 0.00 0.00 94 1019.9
20260508234549 6 0 0.0 0.0 0.00 0.00 0.00 94 1019.9
20260508234042 6 0 0.0 0.0 0.00 0.00 0.00 94 1019.8
20260508233542 6 0 0.0 0.0 0.00 0.00 0.00 94 1019.8
20260508233052 6 0 0.0 0.0 0.00 0.00 0.00 93 1019.7
20260508232545 6 0 0.0 0.0 0.00 0.00 0.00 93 1019.7
20260508232045 6 0 0.0 0.0 0.00 0.00 0.00 93 1019.6
20260508231554 6 0 0.0 0.0 0.00 0.00 0.00 93 1019.6
20260508231045 7 0 0.0 0.0 0.00 0.00 0.00 93 1019.6
20260508230546 7 0 0.0 0.0 0.00 0.00 0.00 93 1019.6
20260508230058 7 0 0.0 0.0 0.00 0.00 0.00 93 1019.7
20260508225543 7 0 0.0 0.0 0.00 0.00 0.00 93 1019.6
20260508225043 7 0 0.0 0.0 0.00 0.00 0.00 93 1019.6
20260508224604 7 0 0.0 0.0 0.00 0.00 0.00 93 1019.7
20260508224042 7 0 0.0 0.0 0.00 0.00 0.00 93 1019.7
20260508223547 7 0 0.0 0.0 0.00 0.00 0.00 93 1019.8
20260508223047 7 0 0.0 0.0 0.00 0.00 0.00 92 1019.7
20260508222543 7 0 0.0 0.0 0.00 0.00 0.00 92 1019.8
20260508222042 7 0 0.0 0.0 0.00 0.00 0.00 92 1019.8
20260508221602 7 0 0.0 0.0 0.00 0.00 0.00 92 1019.8
20260508221047 7 0 0.0 0.0 0.00 0.00 0.00 92 1019.8
20260508220546 7 0 0.0 0.0 0.00 0.00 0.00 92 1019.9
20260508220050 7 0 0.0 0.0 0.00 0.00 0.00 92 1019.8
20260508215546 7 0 0.0 0.0 0.00 0.00 0.00 91 1020.0
20260508215045 8 0 0.0 0.0 0.00 0.00 0.00 91 1019.9
20260508214551 8 0 0.0 0.0 0.00 0.00 0.00 91 1019.9
20260508214045 8 0 0.0 0.0 0.00 0.00 0.00 91 1019.9
20260508213544 8 0 0.0 0.0 0.00 0.00 0.00 91 1019.9
20260508213110 8 0 0.0 0.0 0.00 0.00 0.00 91 1019.9
20260508212545 8 0 0.0 0.0 0.00 0.00 0.00 90 1020.0
20260508212045 8 0 0.0 0.0 0.00 0.00 0.00 90 1020.1
20260508211551 8 0 0.0 0.0 0.00 0.00 0.00 90 1020.0
20260508211046 8 0 0.0 0.0 0.00 0.00 0.00 90 1020.0
20260508210544 8 0 0.0 0.0 0.00 0.00 0.00 89 1020.0
20260508210049 8 0 0.0 0.0 0.00 0.00 0.00 89 1019.9